sat.trackr.live / text

‹ back to catalog

STARLINK-32826

NORAD 62970 · 2025-029Y

PAYLOAD ACTIVE UNKNOWN

§ Identity

Operator
Country
US
Launch date
2025-02-11
Launch site
AFWTR
Launch vehicle
Mass (kg)
RCS (m²)

Purposes: comms

External: N2YO · Heavens-Above · Gunter

§ Orbital elements

Epoch: 2026-09-21T20:44:39.212736Z

Period
93.85 min
Inclination
53.1585°
Eccentricity
0.0000828
Mean motion
15.34377928 rev/d
Perigee alt
462.2 km
Apogee alt
463.3 km
Semi-major
6,840.9 km
B*
1.2354e-4
RAAN
39.0542°
Arg perigee
76.0322°
Mean anomaly
284.0773°
Rev number
9,138

§ Raw data

STARLINK-328261 62970U 25029Y   26264.86434274  .00003797  00000+0  12354-3 0  99932 62970  53.1585  39.0542 0000828  76.0322 284.0773 15.34377928 91385

JSON: /api/v1/satellites/62970 · /tle

For live sub-satellite position, see the globe view (requires WebGL).

§ Visibility from observer

Set your observer location to see the next 7 days of passes ≥ 10°. The values pass through the URL so the page stays shareable.

No JS? Fill the form by hand. The geolocation button needs JavaScript.